Time,TemperatureF,DewpointF,PressureIn,WindDirection,WindDirectionDegrees,WindSpeedMPH,WindSpeedGustMPH,Humidity,HourlyPrecipIn,Conditions,Clouds,dailyrainin,SolarRadiationWatts/m^2,SoftwareType,DateUTC
2013-05-08 00:01:00,37.0,37.0,-100.00,ESE,121,1.0,2.0,99,0.00,,,0.00,0.000000,,2013-05-08 06:01:00,
2013-05-08 00:22:00,36.0,35.0,-100.00,SE,128,1.0,5.0,98,0.00,,,0.00,0.000000,,2013-05-08 06:22:00,
2013-05-08 00:32:00,36.0,35.0,-100.00,SE,128,1.0,5.0,98,0.00,,,0.00,0.000000,,2013-05-08 06:32:00,
2013-05-08 00:42:00,36.0,35.0,-100.00,SE,128,1.0,5.0,98,0.00,,,0.00,0.000000,,2013-05-08 06:42:00,
2013-05-08 00:52:00,36.0,35.0,-100.00,SE,128,1.0,5.0,98,0.00,,,0.00,0.000000,,2013-05-08 06:52:00,
2013-05-08 01:01:00,36.0,35.0,-100.00,SE,128,1.0,5.0,98,0.00,,,0.00,0.000000,,2013-05-08 07:01:00,
2013-05-08 01:22:00,36.0,36.0,-100.00,East,86,1.0,6.0,99,0.00,,,0.00,0.000000,,2013-05-08 07:22:00,
2013-05-08 01:32:00,36.0,36.0,-100.00,East,86,1.0,6.0,99,0.00,,,0.00,0.000000,,2013-05-08 07:32:00,
2013-05-08 01:42:00,36.0,36.0,-100.00,East,86,1.0,6.0,99,0.00,,,0.00,0.000000,,2013-05-08 07:42:00,
2013-05-08 01:52:00,36.0,36.0,-100.00,East,86,1.0,6.0,99,0.00,,,0.00,0.000000,,2013-05-08 07:52:00,
2013-05-08 02:01:00,36.0,36.0,-100.00,East,86,1.0,6.0,99,0.00,,,0.00,0.000000,,2013-05-08 08:01:00,
2013-05-08 02:22:00,35.0,35.0,-100.00,ENE,69,1.0,4.0,100,0.00,,,0.00,0.000000,,2013-05-08 08:22:00,
2013-05-08 02:32:00,35.0,35.0,-100.00,ENE,69,1.0,4.0,100,0.00,,,0.00,0.000000,,2013-05-08 08:32:00,
2013-05-08 02:42:00,35.0,35.0,-100.00,ENE,69,1.0,4.0,100,0.00,,,0.00,0.000000,,2013-05-08 08:42:00,
2013-05-08 02:52:00,35.0,35.0,-100.00,ENE,69,1.0,4.0,100,0.00,,,0.00,0.000000,,2013-05-08 08:52:00,
2013-05-08 03:01:00,35.0,35.0,-100.00,ENE,69,1.0,4.0,100,0.00,,,0.00,0.000000,,2013-05-08 09:01:00,
2013-05-08 03:22:00,34.0,34.0,-100.00,ENE,62,1.0,5.0,100,0.00,,,0.00,0.000000,,2013-05-08 09:22:00,
2013-05-08 03:32:00,34.0,34.0,-100.00,ENE,62,1.0,5.0,100,0.00,,,0.00,0.000000,,2013-05-08 09:32:00,
2013-05-08 03:42:00,34.0,34.0,-100.00,ENE,62,1.0,5.0,100,0.00,,,0.00,0.000000,,2013-05-08 09:42:00,
2013-05-08 03:53:00,34.0,34.0,-100.00,ENE,62,1.0,5.0,100,0.00,,,0.00,0.000000,,2013-05-08 09:53:00,
2013-05-08 04:02:00,34.0,34.0,-100.00,ENE,62,1.0,5.0,100,0.00,,,0.00,0.000000,,2013-05-08 10:02:00,
2013-05-08 04:33:00,34.0,33.0,-100.00,ENE,74,0.0,3.0,97,0.00,,,0.00,0.000000,,2013-05-08 10:33:00,
2013-05-08 04:42:00,34.0,33.0,-100.00,ENE,74,0.0,3.0,97,0.00,,,0.00,0.000000,,2013-05-08 10:42:00,
2013-05-08 04:52:00,34.0,33.0,-100.00,ENE,74,0.0,3.0,97,0.00,,,0.00,0.000000,,2013-05-08 10:52:00,
2013-05-08 05:02:00,34.0,33.0,-100.00,ENE,74,0.0,3.0,97,0.00,,,0.00,0.000000,,2013-05-08 11:02:00,
2013-05-08 05:32:00,36.0,34.0,-100.00,ENE,69,1.0,5.0,94,0.00,,,0.00,0.000000,,2013-05-08 11:32:00,
2013-05-08 05:42:00,36.0,34.0,-100.00,ENE,69,1.0,5.0,94,0.00,,,0.00,0.000000,,2013-05-08 11:42:00,
2013-05-08 05:52:00,36.0,34.0,-100.00,ENE,69,1.0,5.0,94,0.00,,,0.00,0.000000,,2013-05-08 11:52:00,
2013-05-08 06:01:00,36.0,34.0,-100.00,ENE,69,1.0,5.0,94,0.00,,,0.00,0.000000,,2013-05-08 12:01:00,
2013-05-08 06:22:00,34.0,31.0,-100.00,East,88,1.0,4.0,90,0.00,,,0.00,0.000000,,2013-05-08 12:22:00,
2013-05-08 06:32:00,34.0,31.0,-100.00,East,88,1.0,4.0,90,0.00,,,0.00,0.000000,,2013-05-08 12:32:00,
2013-05-08 06:42:00,34.0,31.0,-100.00,East,88,1.0,4.0,90,0.00,,,0.00,0.000000,,2013-05-08 12:42:00,
2013-05-08 06:52:00,34.0,31.0,-100.00,East,88,1.0,4.0,90,0.00,,,0.00,0.000000,,2013-05-08 12:52:00,
2013-05-08 07:01:00,34.0,31.0,-100.00,East,88,1.0,4.0,90,0.00,,,0.00,0.000000,,2013-05-08 13:01:00,
2013-05-08 07:32:00,36.0,34.0,-100.00,East,101,1.0,7.0,91,0.00,,,0.00,14.000000,,2013-05-08 13:32:00,
2013-05-08 07:42:00,36.0,34.0,-100.00,East,101,1.0,7.0,91,0.00,,,0.00,14.000000,,2013-05-08 13:42:00,
2013-05-08 07:52:00,36.0,34.0,-100.00,East,101,1.0,7.0,91,0.00,,,0.00,14.000000,,2013-05-08 13:52:00,
2013-05-08 08:02:00,36.0,34.0,-100.00,East,101,1.0,7.0,91,0.00,,,0.00,14.000000,,2013-05-08 14:02:00,
2013-05-08 08:22:00,47.0,37.0,-100.00,ENE,59,1.0,6.0,68,0.00,,,0.00,150.000000,,2013-05-08 14:22:00,
2013-05-08 08:32:00,47.0,37.0,-100.00,ENE,59,1.0,6.0,68,0.00,,,0.00,150.000000,,2013-05-08 14:32:00,
2013-05-08 09:22:00,60.0,36.0,-100.00,NE,34,1.0,5.0,40,-99.99,,,0.00,429.000000,,2013-05-08 15:22:00,
2013-05-08 09:33:00,60.0,36.0,-100.00,NE,34,1.0,5.0,40,-99.99,,,0.00,429.000000,,2013-05-08 15:33:00,
2013-05-08 10:23:00,64.0,31.0,-100.00,SE,132,2.0,10.0,29,-99.99,,,-99.99,629.000000,,2013-05-08 16:23:00,
2013-05-08 10:33:00,64.0,31.0,-100.00,SE,132,2.0,10.0,29,-99.99,,,-99.99,629.000000,,2013-05-08 16:33:00,
2013-05-08 11:22:00,65.0,29.0,-100.00,NE,56,2.0,13.0,26,-99.99,,,-99.99,792.000000,,2013-05-08 17:22:00,
2013-05-08 11:32:00,65.0,29.0,-100.00,NE,56,2.0,13.0,26,-99.99,,,-99.99,792.000000,,2013-05-08 17:32:00,
2013-05-08 11:42:00,65.0,29.0,-100.00,NE,56,2.0,13.0,26,-99.99,,,-99.99,792.000000,,2013-05-08 17:42:00,
2013-05-08 12:32:00,68.0,28.0,-100.00,NNE,12,2.0,11.0,22,-99.99,,,0.00,920.000000,,2013-05-08 18:32:00,
2013-05-08 13:32:00,63.0,24.0,-100.00,NE,50,1.0,7.0,22,0.00,,,0.00,794.000000,,2013-05-08 19:32:00,
2013-05-08 13:42:00,63.0,24.0,-100.00,NE,50,1.0,7.0,22,0.00,,,0.00,794.000000,,2013-05-08 19:42:00,
2013-05-08 13:52:00,63.0,24.0,-100.00,NE,50,1.0,7.0,22,0.00,,,0.00,794.000000,,2013-05-08 19:52:00,
2013-05-08 14:01:00,63.0,24.0,-100.00,NE,50,1.0,7.0,22,0.00,,,0.00,794.000000,,2013-05-08 20:01:00,
2013-05-08 14:22:00,65.0,22.0,-100.00,East,95,2.0,7.0,19,0.00,,,0.00,836.000000,,2013-05-08 20:22:00,
2013-05-08 14:32:00,65.0,22.0,-100.00,East,95,2.0,7.0,19,0.00,,,0.00,836.000000,,2013-05-08 20:32:00,
2013-05-08 14:42:00,65.0,22.0,-100.00,East,95,2.0,7.0,19,0.00,,,0.00,836.000000,,2013-05-08 20:42:00,
2013-05-08 14:52:00,65.0,22.0,-100.00,East,95,2.0,7.0,19,0.00,,,0.00,836.000000,,2013-05-08 20:52:00,
2013-05-08 15:01:00,65.0,22.0,-100.00,East,95,2.0,7.0,19,0.00,,,0.00,836.000000,,2013-05-08 21:01:00,
2013-05-08 15:33:00,70.0,23.0,-100.00,NNE,20,2.0,9.0,17,0.00,,,0.00,973.000000,,2013-05-08 21:33:00,
2013-05-08 15:53:00,70.0,23.0,-100.00,NNE,20,2.0,9.0,17,0.00,,,0.00,973.000000,,2013-05-08 21:53:00,
2013-05-08 16:02:00,70.0,23.0,-100.00,NNE,20,2.0,9.0,17,0.00,,,0.00,973.000000,,2013-05-08 22:02:00,
2013-05-08 16:33:00,70.0,23.0,-100.00,East,81,2.0,12.0,17,0.00,,,0.00,848.000000,,2013-05-08 22:33:00,
2013-05-08 16:42:00,70.0,23.0,-100.00,East,81,2.0,12.0,17,0.00,,,0.00,848.000000,,2013-05-08 22:42:00,
2013-05-08 16:52:00,70.0,23.0,-100.00,East,81,2.0,12.0,17,0.00,,,0.00,848.000000,,2013-05-08 22:52:00,
2013-05-08 17:01:00,70.0,23.0,-100.00,East,81,2.0,12.0,17,0.00,,,0.00,848.000000,,2013-05-08 23:01:00,
2013-05-08 17:22:00,69.0,24.0,-100.00,ENE,71,2.0,9.0,18,0.00,,,0.00,733.000000,,2013-05-08 23:22:00,
2013-05-08 17:32:00,69.0,24.0,-100.00,ENE,71,2.0,9.0,18,0.00,,,0.00,733.000000,,2013-05-08 23:32:00,
2013-05-08 17:42:00,69.0,24.0,-100.00,ENE,71,2.0,9.0,18,0.00,,,0.00,733.000000,,2013-05-08 23:42:00,
2013-05-08 17:52:00,69.0,24.0,-100.00,ENE,71,2.0,9.0,18,0.00,,,0.00,733.000000,,2013-05-08 23:52:00,
2013-05-08 18:01:00,69.0,24.0,-100.00,ENE,71,2.0,9.0,18,0.00,,,0.00,733.000000,,2013-05-09 00:01:00,
2013-05-08 18:32:00,63.0,22.0,-100.00,South,191,2.0,10.0,21,0.00,,,0.00,294.000000,,2013-05-09 00:32:00,
2013-05-08 18:42:00,63.0,22.0,-100.00,South,191,2.0,10.0,21,0.00,,,0.00,294.000000,,2013-05-09 00:42:00,
2013-05-08 18:52:00,63.0,22.0,-100.00,South,191,2.0,10.0,21,0.00,,,0.00,294.000000,,2013-05-09 00:52:00,
2013-05-08 19:01:00,63.0,22.0,-100.00,South,191,2.0,10.0,21,0.00,,,0.00,294.000000,,2013-05-09 01:01:00,
2013-05-08 19:22:00,57.0,22.0,-100.00,NNE,21,1.0,9.0,26,0.00,,,0.00,64.000000,,2013-05-09 01:22:00,
2013-05-08 19:32:00,57.0,22.0,-100.00,NNE,21,1.0,9.0,26,0.00,,,0.00,64.000000,,2013-05-09 01:32:00,
2013-05-08 19:42:00,57.0,22.0,-100.00,NNE,21,1.0,9.0,26,0.00,,,0.00,64.000000,,2013-05-09 01:42:00,
2013-05-08 19:52:00,57.0,22.0,-100.00,NNE,21,1.0,9.0,26,0.00,,,0.00,64.000000,,2013-05-09 01:52:00,
2013-05-08 20:01:00,57.0,22.0,-100.00,NNE,21,1.0,9.0,26,0.00,,,0.00,64.000000,,2013-05-09 02:01:00,
2013-05-08 20:33:00,54.0,24.0,-100.00,ENE,57,1.0,7.0,31,0.00,,,0.00,20.000000,,2013-05-09 02:33:00,
2013-05-08 20:42:00,54.0,24.0,-100.00,ENE,57,1.0,7.0,31,0.00,,,0.00,20.000000,,2013-05-09 02:42:00,
2013-05-08 20:52:00,54.0,24.0,-100.00,ENE,57,1.0,7.0,31,0.00,,,0.00,20.000000,,2013-05-09 02:52:00,
2013-05-08 21:01:00,54.0,24.0,-100.00,ENE,57,1.0,7.0,31,0.00,,,0.00,20.000000,,2013-05-09 03:01:00,
2013-05-08 21:03:00,46.0,27.0,-100.00,NW,321,0.0,5.0,48,0.00,,,0.00,4.000000,,2013-05-09 03:03:00,
2013-05-08 21:21:00,46.0,27.0,-100.00,NW,321,0.0,5.0,48,0.00,,,0.00,4.000000,,2013-05-09 03:21:00,
2013-05-08 21:33:00,46.0,27.0,-100.00,NW,321,0.0,5.0,48,0.00,,,0.00,4.000000,,2013-05-09 03:33:00,
2013-05-08 21:43:00,46.0,27.0,-100.00,NW,321,0.0,5.0,48,0.00,,,0.00,4.000000,,2013-05-09 03:43:00,
2013-05-08 21:53:00,46.0,27.0,-100.00,NW,321,0.0,5.0,48,0.00,,,0.00,4.000000,,2013-05-09 03:53:00,
2013-05-08 22:23:00,43.0,28.0,-100.00,SW,225,1.0,4.0,55,0.00,,,0.00,0.000000,,2013-05-09 04:23:00,
2013-05-08 22:33:00,43.0,28.0,-100.00,SW,225,1.0,4.0,55,0.00,,,0.00,0.000000,,2013-05-09 04:33:00,
2013-05-08 22:43:00,43.0,28.0,-100.00,SW,225,1.0,4.0,55,0.00,,,0.00,0.000000,,2013-05-09 04:43:00,
2013-05-08 22:53:00,43.0,28.0,-100.00,SW,225,1.0,4.0,55,0.00,,,0.00,0.000000,,2013-05-09 04:53:00,
2013-05-08 23:02:00,43.0,28.0,-100.00,SW,225,1.0,4.0,55,0.00,,,0.00,0.000000,,2013-05-09 05:02:00,
2013-05-08 23:32:00,41.0,34.0,-100.00,ESE,112,0.0,2.0,75,0.00,,,0.00,0.000000,,2013-05-09 05:32:00,
2013-05-08 23:42:00,41.0,34.0,-100.00,ESE,112,0.0,2.0,75,0.00,,,0.00,0.000000,,2013-05-09 05:42:00,
2013-05-08 23:52:00,41.0,34.0,-100.00,ESE,112,0.0,2.0,75,0.00,,,0.00,0.000000,,2013-05-09 05:52:00,